TimeCDT,TemperatureF,Dew PointF,Humidity,Sea Level PressureIn,VisibilityMPH,Wind Direction,Wind SpeedMPH,Gust SpeedMPH,PrecipitationIn,Events,Conditions,WindDirDegrees,DateUTC
12:53 AM,71.1,70.0,96,30.05,4.0,Calm,Calm,-,N/A,,Clear,0,2013-09-12 05:53:00
1:53 AM,71.1,70.0,96,30.04,5.0,Calm,Calm,-,N/A,,Clear,0,2013-09-12 06:53:00
2:53 AM,71.1,70.0,96,30.04,4.0,Calm,Calm,-,N/A,,Partly Cloudy,0,2013-09-12 07:53:00
3:53 AM,70.0,69.1,97,30.04,5.0,Calm,Calm,-,N/A,,Mostly Cloudy,0,2013-09-12 08:53:00
4:53 AM,69.1,69.1,100,30.04,4.0,Calm,Calm,-,N/A,,Clear,0,2013-09-12 09:53:00
5:53 AM,70.0,69.1,97,30.05,6.0,Calm,Calm,-,N/A,,Clear,0,2013-09-12 10:53:00
6:53 AM,69.1,68.0,96,30.06,6.0,Calm,Calm,-,N/A,,Clear,0,2013-09-12 11:53:00
7:53 AM,71.1,70.0,96,30.06,6.0,Calm,Calm,-,N/A,,Clear,0,2013-09-12 12:53:00
8:53 AM,78.1,72.0,81,30.07,7.0,Calm,Calm,-,N/A,,Clear,0,2013-09-12 13:53:00
9:53 AM,84.0,71.1,65,30.07,9.0,Calm,Calm,-,N/A,,Clear,0,2013-09-12 14:53:00
10:53 AM,89.1,68.0,50,30.07,5.0,Variable,3.5,-,N/A,,Haze,0,2013-09-12 15:53:00
11:53 AM,91.0,66.9,45,30.05,10.0,Variable,3.5,-,N/A,,Clear,0,2013-09-12 16:53:00
12:53 PM,91.9,64.9,41,30.03,10.0,Calm,Calm,-,N/A,,Partly Cloudy,0,2013-09-12 17:53:00
1:53 PM,96.1,66.0,37,30.00,10.0,NE,5.8,-,N/A,,Scattered Clouds,50,2013-09-12 18:53:00
2:53 PM,95.0,64.9,37,29.96,10.0,Calm,Calm,-,N/A,,Partly Cloudy,0,2013-09-12 19:53:00
3:53 PM,93.9,64.0,37,29.94,10.0,Calm,Calm,-,N/A,,Clear,0,2013-09-12 20:53:00
4:53 PM,93.9,64.9,38,29.92,10.0,NNE,5.8,-,N/A,,Overcast,20,2013-09-12 21:53:00
5:15 PM,91.4,66.2,43,29.94,10.0,NNE,9.2,-,N/A,Thunderstorm,Overcast,20,2013-09-12 22:15:00
5:43 PM,87.8,68.0,52,29.94,10.0,NNW,10.4,-,N/A,,Overcast,330,2013-09-12 22:43:00
5:53 PM,88.0,68.0,51,29.92,10.0,North,6.9,-,N/A,,Mostly Cloudy,350,2013-09-12 22:53:00
6:53 PM,84.0,68.0,58,29.94,10.0,West,4.6,-,N/A,,Clear,270,2013-09-12 23:53:00
7:53 PM,81.0,69.1,67,29.94,10.0,North,4.6,-,N/A,,Clear,350,2013-09-13 00:53:00
8:53 PM,79.0,70.0,74,29.95,10.0,Calm,Calm,-,N/A,,Clear,0,2013-09-13 01:53:00
9:53 PM,75.9,71.1,85,29.96,9.0,NNW,3.5,-,N/A,,Clear,330,2013-09-13 02:53:00
10:53 PM,77.0,71.1,82,29.95,9.0,Calm,Calm,-,N/A,,Overcast,0,2013-09-13 03:53:00
11:53 PM,75.0,71.1,87,29.96,8.0,NNW,4.6,-,N/A,,Clear,340,2013-09-13 04:53:00